User: anonymous   Login
Location: Unspecified
(0.0000°N, 0.0000°E)
Time: 00:20:23
(UTC+00:00)
Language:

UHF F/O F2 - Orbit

View from above orbital plane
View from above orbital plane
View from above satellite
View from above satellite

Ground track
Ground track

The orbit data is extracted from the following two-line orbital elements,

1 22787U 93056A   17060.54334804 0.00000000  00000-0  00000-0 0    07
2 22787  10.6925  24.0036 0005253 287.8236  72.2736  1.00270000    04
Epoch (UTC): 01 March 2017 13:02:25
Eccentricity: 0.0005253
inclination: 10.6925°
perigee height: 35764 km
apogee height: 35809 km
right ascension of ascending node: 24.0036°
argument of perigee: 287.8236°
revolutions per day: 1.00270000
mean anomaly at epoch: 72.2736°
orbit number at epoch: 0

The dashed part of the orbit path shows where the satellite is in the earth's shadow,  

DLR